Location: Larrial
(48.2758°N, 4.5331°W)
Time: 01:29:13
(UTC+00:00)

XW-2F - Pass Details

Date: 02 December 2021
Orbit: 495 x 515 km, 97.5° (Epoch: 16 January)

Event Time Altitude Azimuth Distance (km) Brightness Sun altitude
Rises 06:06:18 0° 20° (NNE) 2,652 ? -16.4°
Reaches altitude 10° 06:08:32 10° 29° (NNE) 1,759 ? -16.1°
Maximum altitude 06:12:04 36° 97° (E) 829 ? -15.5°
Drops below altitude 10° 06:15:34 10° 166° (SSE) 1,742 ? -14.9°
Sets 06:17:46 0° 175° (S) 2,621 ? -14.6°
